Regional Weather Roundup
Issued by NWS Burlington, VT

Home | Current Version | Previous Version | Text Only | Print | Product List | Glossary On
Versions: 1 2 3 4 5 6 7 8 9 10 11 12 13 14 15 16 17 18 19 20 21 22 23 24 25 26 27 28 29 30 31 32 33 34 35 36 37 38 39 40 41 42 43 44 45 46 47 48 49 50
288
ASUS41 KBTV 280930
RWRBTV
VERMONT REGIONAL WEATHER ROUNDUP
NATIONAL WEATHER SERVICE BURLINGTON VT
500 AM EDT TUE MAR 28 2017

NOTE: "FAIR" INDICATES FEW OR NO CLOUDS BELOW 12,000 FEET WITH NO
SIGNIFICANT WEATHER AND/OR OBSTRUCTIONS TO VISIBILITY.

* THESE REPORTS ARE NOT UNDER NWS QUALITY CONTROL AND/OR DO NOT
  REPORT WEATHER SUCH AS PRECIPITATION AND FOG.

VTZ001>019-281000-
_____VERMONT_____


CITY           SKY/WX    TMP DP  RH WIND       PRES   REMARKS
BURLINGTON     CLOUDY    42  41  96 CALM      29.90F
MORRISVILLE    CLOUDY    33  31  92 CALM      29.93F FOG
ST. JOHNSBURY*   N/A     35  35 100 MISG      29.94F
LYNDONVILLE*   DRZL/FOG  33  33  99 CALM      29.95F VSB 1/4
MIDDLEBURY*    CLOUDY    37  37  97 CALM      29.91F FOG
RUTLAND*       CLOUDY    37  35  92 SE9       29.93F WCI  30
SPRINGFIELD    FOG       33  32  96 CALM      29.96F VSB 1/2
HIGHGATE*      CLOUDY    40  39  97 S6        29.89F
NEWPORT*       CLOUDY    34  33  97 S7        29.92F FOG     WCI  28
BENNINGTON     CLOUDY    38  37  97 CALM      29.92S
SUTTON*          N/A     32 N/A N/A MISG        N/A
ISLAND POND*     N/A     32 N/A N/A CALM        N/A
GALLUP MILLS*    N/A     32 N/A N/A MISG        N/A
UNION VILLAGE*   N/A     32 N/A N/A MISG        N/A
MT. MANSFIELD*   N/A     39 N/A N/A SW17        N/A  WCI  30

_____LAKE CHAMPLAIN_____


CITY           SKY/WX    TMP DP  RH WIND       PRES   REMARKS
BURTON ISLAND*   N/A     37  37 100 SW10        N/A  WCI  30
COLCHESTER RF*   N/A     37  37 100 S18         N/A  WCI  27
DIAMOND ISL*     N/A     39  37  93 SW6         N/A

$$

NYZ007-026>031-035-052-083-087-281000-
_____NORTHERN NEW YORK_____


CITY           SKY/WX    TMP DP  RH WIND       PRES   REMARKS
PLATTSBURGH    CLOUDY    36  34  92 W3        29.89F
SARANAC LAKE   FOG       36  36 100 CALM      29.86S VSB 1/4
MASSENA        CLOUDY    35  35 100 CALM      29.88S FOG
POTSDAM*       CLOUDY    46  46 100 SW6       29.86S
STARK FALLS*     N/A     41 N/A N/A SE6         N/A
WATERTOWN      CLOUDY    45  44  97 CALM      29.87S FOG
FT DRUM        CLOUDY    43  41  93 SE9       29.85F
ALBANY         MOCLDY    40  37  89 CALM      29.94S
GLENS FALLS    CLOUDY    36  35  96 CALM      29.93S FOG

$$
NHZ002-005-011-281000-
_____NEW HAMPSHIRE_____


CITY           SKY/WX    TMP DP  RH WIND       PRES   REMARKS
LEBANON        CLOUDY    35  34  96 CALM      29.96F
KEENE          CLOUDY    35  34  96 NE5       29.96F WCI  31
MT WASHINGTON  FOG       34  34 100 W37         N/A  VSB 0   WCI  19
PLYMOUTH       CLOUDY    32  32  99 CALM      29.99S FOG
WHITEFIELD     CLOUDY    33  30  88 CALM      29.95F FOG

$$

_____REGIONAL QUEBEC LOCATIONS_____


CITY           SKY/WX    TMP DP  RH WIND       PRES   REMARKS
MONTREAL       DRIZZLE   34  32  93 N7        29.88S FOG     WCI  28
QUEBEC CITY    FRZ DRZL  30  28  93 E10G18    29.95S FOG     WCI  21
SHERBROOKE     CLOUDY    34  34 100 E2        29.91R

_____REGIONAL ONTARIO LOCATIONS_____


CITY           SKY/WX    TMP DP  RH WIND       PRES   REMARKS
OTTAWA         LGT RAIN  34  34 100 N3        29.87R VSB 1/4

______KEY______
VSB  - VISIBILITY IN MILES
WCI  - WIND CHILL INDEX
HX   - HEAT INDEX
$$
NNNN




USA.gov is the U.S. government's official web portal to all federal, state and local government web resources and services.